THORAD AGENA D DEB, 4658

Orbit data source: Space-Track

THORAD AGENA D DEB, 4658 is space debris in SSO originally from a launch on Wed, 08 Apr 1970 UTC launched from the Air Force Western Test Range (AFWTR). Debris objects in space refer to the collection of defunct objects orbiting the Earth. Examples of debris include non-operational satellites, rocket bodies, and fragments generated from explosions, collisions, or faulty payload assembly.

Loading next visibility...
Identifier
4658, 1970-025AS
Orbit
SSO
Country
Flag of USUS
Related business
Manufacturer
Unknown
Mission
Spacecraft
Bus & Motor
Unknown
Mass
Unknown
Launch date (UTC)
1970-04-08 (56 years ago)
Launch vehicle
Unknown
Launch site
Air Force Western Test Range (AFWTR)
Object type
Payload
Rocket body
Debris
Shape & HBR
Unknown shape, 0.1 m
Radar Cross Section
Small (<0.1 m²)

Expand to show TLE details & history
Last TLE update: 5 hours ago

TLE from 5 hours ago
0 THORAD AGENA D DEB
1  4658U 70025AS  26132.89211178  .00001181  00000-0  84778-3 0  9996
2  4658  99.9380 100.5882 0022970 290.3314  69.5379 13.99193357813460
Epoch: 2026-05-12T21:24Z
TLE epoch observation values (Epoch: 2026-05-12T21:24:38.457Z)
Latitude
-0.00003°
Longitude
-91.232°
Altitude
893.625 km
Speed
7.408 km/s
True Right ascension
06h 42m 21s
True Declination
0° 00' 00"
Sunlit
Object was in daylight at epoch
Visualization orbit readout
Latitude
Unknown
Longitude
Unknown
Altitude
Unknown
Speed
Unknown
Apparent Right ascension
Unknown
Apparent Declination
Unknown
Sunlit
N/A
Visualization observer readout
Local Sidereal Time
11:01:52
Azimuth
Unknown
Elevation
Unknown
Doppler factor
Unknown
Orbital elements
Apogee altitude
910.542 km
Perigee altitude
877.135 km
Semi-major axis
7,271.975 km
Eccentricity
0.0023
Inclination
99.938°
RAAN
100.5882°
Arg. of periapsis
290.3314°
True anomaly
69.78476°
Mean anomaly
69.5379°
Eccentric anomaly
69.6613°
Mean motion
3.49997 °/min
Orbital period
102.86 mins
BSTAR
0.00084778

Documentation

Showing up to 5 results
|